Burlington, CO

8:09 PM MDT on June 25, 2017 (GMT -0600)
Kit Carson County

Weather History for KITR - March, 2013

Change the Weather History Date:

Sunday, March 31, 2013

  Actual Average Record
Temperature  
Mean Temperature 50 °F 44 °F  
Max Temperature 68 °F 59 °F 85 °F (1946)
Min Temperature 32 °F 29 °F 11 °F (1931)
Degree Days  
Heating Degree Days 16    
Moisture  
Dew Point 32 °F    
Average Humidity 58    
Maximum Humidity 92    
Minimum Humidity 23    
Precipitation  
Precipitation 0.00 in 0.04 in 0.26 in (1960)
Month to date precipitation 0.80 0.89  
Year to date precipitation 1.29 1.69  
Sea Level Pressure  
Sea Level Pressure 30.01 in    
Wind  
Wind Speed 9 mph (WSW)    
Max Wind Speed 17 mph    
Max Gust Speed 23 mph    
Visibility 10 miles    
Events      
T = Trace of Precipitation, MM = Missing Value Source: NWS Daily Summary

Daily Weather History Graph

Daily Weather History Graph

Search for Another Location

Airport or City:

Trip Planner

Search our weather history database for the weather conditions in past years. The results will help you decide how hot, cold, wet, or windy it might be!

Date:

Astronomy

Mar. 31, 2013 Rise Set
Actual Time 6:34 AM MDT 7:12 PM MDT
Civil Twilight 6:07 AM MDT 7:39 PM MDT
Nautical Twilight 5:35 AM MDT 8:11 PM MDT
Astronomical Twilight 5:03 AM MDT 8:44 PM MDT
Moon No Moon Rise 9:26 AM MDT (3/31)
Length of Visible Light 13h 31m
Length of Day
12h 37m
Waning Gibbous, 77% of the Moon is Illuminated
Mar 31
Waning Gibbous
Apr 2
Last Quarter
Apr 10
New
Apr 18
First Quarter
Apr 25
Full

Hourly Weather History & Observations

Time (MDT) Temp. Windchill Dew Point Humidity Pressure Visibility Wind Dir Wind Speed Gust Speed Precip Events Conditions
12:53 AM 39.0 °F 34.8 °F 35.1 °F 86% 30.11 in 10.0 mi NNW 5.8 mph - N/A   Clear
1:53 AM 36.0 °F 30.3 °F 33.1 °F 89% 30.12 in 10.0 mi NW 6.9 mph - N/A   Clear
2:53 AM 34.0 °F 27.2 °F 32.0 °F 92% 30.10 in 10.0 mi WNW 8.1 mph - N/A   Clear
3:53 AM 33.1 °F 24.9 °F 30.9 °F 92% 30.09 in 10.0 mi West 10.4 mph - N/A   Clear
4:53 AM 34.0 °F 26.0 °F 30.9 °F 89% 30.09 in 10.0 mi West 10.4 mph - N/A   Clear
5:53 AM 34.0 °F 26.6 °F 30.9 °F 89% 30.13 in 10.0 mi West 9.2 mph - N/A   Clear
6:53 AM 33.1 °F 26.1 °F 30.0 °F 89% 30.12 in 10.0 mi West 8.1 mph - N/A   Clear
7:53 AM 37.0 °F 31.6 °F 34.0 °F 89% 30.11 in 10.0 mi West 6.9 mph - N/A   Clear
8:53 AM 46.0 °F 41.4 °F 39.9 °F 79% 30.07 in 10.0 mi West 9.2 mph - N/A   Clear
9:53 AM 51.1 °F - 36.0 °F 56% 30.04 in 10.0 mi SW 10.4 mph - N/A   Clear
10:53 AM 55.0 °F - 34.0 °F 45% 30.03 in 10.0 mi SW 9.2 mph - N/A   Clear
11:53 AM 57.9 °F - 32.0 °F 37% 30.01 in 10.0 mi West 11.5 mph 17.3 mph N/A   Clear
12:53 PM 60.1 °F - 32.0 °F 35% 29.99 in 10.0 mi SW 17.3 mph 21.9 mph N/A   Clear
1:53 PM 63.0 °F - 30.9 °F 30% 29.96 in 10.0 mi WSW 12.7 mph 17.3 mph N/A   Clear
2:53 PM 64.9 °F - 30.0 °F 27% 29.92 in 10.0 mi SW 12.7 mph 23.0 mph N/A   Clear
3:53 PM 66.0 °F - 28.9 °F 25% 29.90 in 10.0 mi SW 16.1 mph 20.7 mph N/A   Clear
4:53 PM 66.9 °F - 28.0 °F 23% 29.88 in 10.0 mi SW 11.5 mph 17.3 mph N/A   Clear
5:53 PM 66.0 °F - 28.9 °F 25% 29.88 in 10.0 mi SW 10.4 mph - N/A   Clear
6:53 PM 60.1 °F - 33.1 °F 36% 29.89 in 10.0 mi SSW 9.2 mph - N/A   Clear
7:53 PM 53.1 °F - 34.0 °F 48% 29.91 in 10.0 mi SSW 4.6 mph - N/A   Clear
8:53 PM 53.1 °F - 30.9 °F 43% 29.93 in 10.0 mi NNE 9.2 mph - N/A   Clear
9:53 PM 46.9 °F - 30.0 °F 52% 29.94 in 10.0 mi NE 10.4 mph - N/A   Clear
10:53 PM 46.9 °F - 28.0 °F 48% 29.96 in 10.0 mi NE 15.0 mph 23.0 mph N/A   Clear
11:53 PM 43.0 °F 35.1 °F 32.0 °F 65% 30.01 in 10.0 mi NE 17.3 mph - N/A   Clear